{"data":{"norad_id":63793,"intl_designator":"2025-091U","name":"STARLINK-33925","alt_names":[],"object_type":"PAYLOAD","status":"ACTIVE","operator":null,"country":"US","launch_date":"2025-05-02","launch_site_code":"AFETR","launch_vehicle":null,"mission":null,"orbit_class":"UNKNOWN","rcs_meters":null,"size_class":null,"mass_kg":null,"dimensions":null,"purposes":["comms"],"wikipedia_slug":null,"has_3d_model":false,"image_url":null,"decayed_at":null,"tle_current":{"epoch":"2026-05-24T20:36:56.112192Z","epoch_age_seconds":81155,"freshness":"FRESH","line1":"1 63793U 25091U   26144.85898278  .00025615  00000+0  93698-3 0  9993","line2":"2 63793  43.0053 342.1603 0001540 268.8111  91.2564 15.27584618 60663","mean_motion":15.27584618,"eccentricity":0.000154,"inclination_deg":43.0053,"raan_deg":342.1603,"arg_perigee_deg":268.8111,"mean_anomaly_deg":91.2564,"bstar":0.00093698,"rev_number":6066,"period_min":94.266463738377,"perigee_km":481.97864759188,"apogee_km":484.09188865046,"semimajor_km":6861.1722681212,"source":"CELESTRAK","updated_at":"2026-05-25T13:38:20.136578Z"}}}